Location: Camaret
(48.2753°N, 4.5961°W)
Time: 01:23:10
(UTC+00:00)

Cosmos 44 Rocket - Pass Details

Date: 29 October 2020
Orbit: 642 x 748 km, 65.1° (Epoch: 26 November)

Event Time Altitude Azimuth Distance (km) Brightness Sun altitude
Rises 19:52:31 0° 228° (SW) 2,995 7.0 -28.5°
Reaches altitude 10° 19:54:49 10° 232° (SW) 2,101 6.2 -28.9°
Enters shadow 19:58:43 52° 270° (W) 858 4.0 -29.5°
